| time (UTC) | temp C | wind direction | speed KPH | gust KPH | rain 1hr cm | rain 24hr cm | rain mn cm | humidity % | barometer mb |
| 20260507013459 | 8 | 250 | 6.4 | 11.3 | 0.00 | 0.00 | 0.00 | 84 | 1009.0 |
| 20260507013002 | 8 | 259 | 6.4 | 14.5 | 0.00 | 0.00 | 0.00 | 84 | 1009.0 |
| 20260507012457 | 8 | 297 | 6.4 | 14.5 | 0.00 | 0.00 | 0.00 | 84 | 1009.0 |
| 20260507011957 | 8 | 274 | 4.8 | 9.7 | 0.00 | 0.00 | 0.00 | 84 | 1009.0 |
| 20260507011459 | 8 | 296 | 4.8 | 11.3 | 0.00 | 0.00 | 0.00 | 84 | 1008.9 |
| 20260507010954 | 8 | 290 | 6.4 | 11.3 | 0.00 | 0.00 | 0.00 | 84 | 1008.9 |
| 20260507010803 | 8 | 255 | 4.8 | 9.7 | 0.00 | 0.00 | 0.00 | 84 | 1008.8 |
| 20260507005955 | 8 | 285 | 4.8 | 9.7 | 0.00 | 0.00 | 0.00 | 84 | 1008.8 |
| 20260507005452 | 8 | 257 | 4.8 | 9.7 | 0.00 | 0.00 | 0.00 | 84 | 1008.8 |
| 20260507004947 | 8 | 279 | 3.2 | 9.7 | 0.00 | 0.00 | 0.00 | 84 | 1008.8 |
| 20260507004741 | 8 | 284 | 3.2 | 9.7 | 0.00 | 0.00 | 0.00 | 84 | 1008.7 |
| 20260507003942 | 8 | 294 | 3.2 | 11.3 | 0.00 | 0.00 | 0.00 | 84 | 1008.6 |
| 20260507003438 | 8 | 258 | 3.2 | 11.3 | 0.00 | 0.00 | 0.00 | 84 | 1008.7 |
| 20260507002939 | 8 | 274 | 3.2 | 8.0 | 0.00 | 0.00 | 0.00 | 85 | 1008.7 |
| 20260507002435 | 8 | 274 | 4.8 | 9.7 | 0.00 | 0.00 | 0.00 | 85 | 1008.6 |
| 20260507001937 | 8 | 292 | 4.8 | 11.3 | 0.00 | 0.00 | 0.00 | 85 | 1008.6 |
| 20260507001437 | 8 | 336 | 4.8 | 11.3 | 0.00 | 0.00 | 0.00 | 85 | 1008.6 |
| 20260507000934 | 8 | 300 | 4.8 | 11.3 | 0.00 | 0.00 | 0.00 | 85 | 1008.6 |
| 20260507000435 | 8 | 294 | 6.4 | 11.3 | 0.00 | 0.00 | 0.00 | 85 | 1008.5 |
| 20260506235934 | 8 | 309 | 6.4 | 12.9 | 0.00 | 0.00 | 0.00 | 85 | 1008.6 |
| 20260506235435 | 8 | 302 | 6.4 | 12.9 | 0.00 | 0.00 | 0.00 | 85 | 1008.5 |
| 20260506234935 | 8 | 313 | 6.4 | 12.9 | 0.00 | 0.00 | 0.00 | 85 | 1008.5 |
| 20260506234434 | 9 | 5 | 6.4 | 12.9 | 0.00 | 0.00 | 0.00 | 85 | 1008.5 |
| 20260506233934 | 8 | 316 | 6.4 | 12.9 | 0.00 | 0.00 | 0.00 | 85 | 1008.5 |
| 20260506233734 | 9 | 309 | 4.8 | 11.3 | 0.00 | 0.00 | 0.00 | 85 | 1008.6 |
| 20260506232933 | 9 | 257 | 4.8 | 12.9 | 0.00 | 0.00 | 0.00 | 85 | 1008.5 |
| 20260506232433 | 9 | 294 | 4.8 | 12.9 | 0.00 | 0.00 | 0.00 | 85 | 1008.5 |
| 20260506232234 | 9 | 254 | 4.8 | 11.3 | 0.00 | 0.00 | 0.00 | 85 | 1008.4 |
| 20260506231429 | 9 | 296 | 4.8 | 11.3 | 0.00 | 0.00 | 0.00 | 84 | 1008.4 |
| 20260506230929 | 9 | 286 | 6.4 | 12.9 | 0.00 | 0.00 | 0.00 | 84 | 1008.4 |
| 20260506230437 | 9 | 290 | 6.4 | 12.9 | 0.00 | 0.00 | 0.00 | 84 | 1008.3 |
| 20260506225930 | 9 | 264 | 4.8 | 9.7 | 0.00 | 0.00 | 0.00 | 84 | 1008.3 |
| 20260506225430 | 9 | 296 | 3.2 | 9.7 | 0.00 | 0.03 | 0.00 | 84 | 1008.3 |
| 20260506224930 | 9 | 259 | 4.8 | 12.9 | 0.00 | 0.03 | 0.00 | 84 | 1008.3 |
| 20260506224429 | 9 | 270 | 6.4 | 12.9 | 0.00 | 0.03 | 0.00 | 84 | 1008.2 |
| 20260506223930 | 9 | 264 | 4.8 | 12.9 | 0.00 | 0.03 | 0.00 | 84 | 1008.2 |
| 20260506223429 | 9 | 267 | 6.4 | 12.9 | 0.00 | 0.03 | 0.00 | 84 | 1008.1 |
| 20260506222929 | 9 | 319 | 8.0 | 12.9 | 0.00 | 0.03 | 0.00 | 84 | 1008.1 |
| 20260506222430 | 9 | 284 | 8.0 | 12.9 | 0.00 | 0.03 | 0.00 | 84 | 1008.1 |
| 20260506221931 | 9 | 259 | 9.7 | 14.5 | 0.00 | 0.03 | 0.00 | 84 | 1008.1 |
| 20260506221430 | 9 | 250 | 9.7 | 14.5 | 0.00 | 0.03 | 0.00 | 84 | 1008.0 |
| 20260506221235 | 9 | 267 | 9.7 | 14.5 | 0.00 | 0.03 | 0.00 | 84 | 1007.9 |
| 20260506220429 | 9 | 259 | 8.0 | 12.9 | 0.00 | 0.03 | 0.00 | 84 | 1007.9 |
| 20260506215931 | 9 | 279 | 6.4 | 11.3 | 0.00 | 0.03 | 0.03 | 84 | 1007.9 |
| 20260506215429 | 9 | 295 | 6.4 | 11.3 | 0.00 | 0.03 | 0.03 | 84 | 1007.9 |
| 20260506214931 | 9 | 260 | 4.8 | 8.0 | 0.00 | 0.03 | 0.03 | 84 | 1007.9 |
| 20260506214429 | 10 | 235 | 4.8 | 8.0 | 0.00 | 0.03 | 0.03 | 84 | 1007.8 |
| 20260506213930 | 10 | 231 | 4.8 | 8.0 | 0.00 | 0.03 | 0.03 | 84 | 1007.8 |
| 20260506213428 | 10 | 242 | 3.2 | 8.0 | 0.00 | 0.03 | 0.03 | 84 | 1007.7 |
| 20260506212929 | 10 | 248 | 3.2 | 8.0 | 0.00 | 0.03 | 0.03 | 83 | 1007.6 |
| 20260506212429 | 10 | 248 | 1.6 | 8.0 | 0.00 | 0.03 | 0.03 | 83 | 1007.6 |
| 20260506211929 | 10 | 248 | 3.2 | 8.0 | 0.00 | 0.03 | 0.03 | 83 | 1007.6 |
| 20260506211431 | 10 | 288 | 3.2 | 8.0 | 0.00 | 0.03 | 0.03 | 83 | 1007.5 |
| 20260506210930 | 10 | 290 | 3.2 | 8.0 | 0.00 | 0.03 | 0.03 | 83 | 1007.5 |
| 20260506210430 | 10 | 303 | 3.2 | 11.3 | 0.00 | 0.03 | 0.03 | 83 | 1007.4 |
| 20260506210239 | 10 | 329 | 3.2 | 11.3 | 0.00 | 0.03 | 0.03 | 83 | 1007.3 |
| 20260506205431 | 10 | 312 | 3.2 | 9.7 | 0.00 | 0.03 | 0.03 | 83 | 1007.4 |
| 20260506204929 | 10 | 248 | 3.2 | 8.0 | 0.00 | 0.03 | 0.03 | 83 | 1007.3 |
| 20260506204429 | 10 | 255 | 4.8 | 8.0 | 0.00 | 0.03 | 0.03 | 83 | 1007.3 |
| 20260506204229 | 10 | 241 | 4.8 | 11.3 | 0.00 | 0.03 | 0.03 | 83 | 1007.3 |
| 20260506203431 | 10 | 261 | 6.4 | 11.3 | 0.00 | 0.03 | 0.03 | 83 | 1007.2 |
| 20260506203235 | 10 | 255 | 4.8 | 14.5 | 0.00 | 0.03 | 0.03 | 82 | 1007.2 |
| 20260506202740 | 10 | 261 | 6.4 | 14.5 | 0.00 | 0.03 | 0.03 | 82 | 1007.3 |
| 20260506201929 | 10 | 244 | 6.4 | 12.9 | 0.00 | 0.03 | 0.03 | 82 | 1007.1 |
| 20260506201428 | 10 | 269 | 6.4 | 11.3 | 0.00 | 0.03 | 0.03 | 82 | 1007.1 |
| 20260506200930 | 10 | 244 | 6.4 | 11.3 | 0.00 | 0.03 | 0.03 | 82 | 1007.0 |
| 20260506200732 | 10 | 258 | 4.8 | 9.7 | 0.00 | 0.03 | 0.03 | 82 | 1006.9 |
| 20260506195930 | 10 | 273 | 4.8 | 11.3 | 0.00 | 0.03 | 0.03 | 82 | 1006.9 |
| 20260506195432 | 10 | 271 | 4.8 | 11.3 | 0.00 | 0.03 | 0.03 | 82 | 1006.8 |
| 20260506194931 | 10 | 248 | 4.8 | 11.3 | 0.00 | 0.03 | 0.03 | 82 | 1006.8 |
| 20260506194735 | 10 | 238 | 4.8 | 9.7 | 0.00 | 0.03 | 0.03 | 82 | 1006.8 |
| 20260506194224 | 10 | 288 | 4.8 | 9.7 | 0.00 | 0.03 | 0.03 | 83 | 1006.8 |
| 20260506193430 | 10 | 315 | 4.8 | 9.7 | 0.00 | 0.03 | 0.03 | 82 | 1006.8 |
| 20260506193230 | 10 | 225 | 4.8 | 9.7 | 0.00 | 0.03 | 0.03 | 82 | 1006.7 |
| 20260506192429 | 10 | 279 | 6.4 | 11.3 | 0.00 | 0.03 | 0.03 | 82 | 1006.6 |
| 20260506191929 | 10 | 273 | 4.8 | 11.3 | 0.00 | 0.03 | 0.03 | 82 | 1006.6 |
| 20260506191431 | 10 | 266 | 4.8 | 11.3 | 0.00 | 0.03 | 0.03 | 82 | 1006.5 |
| 20260506191247 | 10 | 264 | 6.4 | 11.3 | 0.00 | 0.05 | 0.03 | 82 | 1006.4 |
| 20260506190426 | 11 | 263 | 6.4 | 14.5 | 0.00 | 0.05 | 0.03 | 82 | 1006.4 |
| 20260506190114 | 11 | 289 | 6.4 | 12.9 | 0.00 | 0.05 | 0.03 | 82 | 1006.2 |
| 20260506190011 | 11 | 285 | 6.4 | 14.5 | 0.00 | 0.05 | 0.03 | 82 | 1006.2 |
| 20260506184904 | 11 | 279 | 4.8 | 12.9 | 0.00 | 0.05 | 0.03 | 82 | 1006.0 |
| 20260506184402 | 11 | 300 | 4.8 | 12.9 | 0.00 | 0.05 | 0.03 | 81 | 1005.9 |
| 20260506183901 | 11 | 256 | 6.4 | 12.9 | 0.00 | 0.05 | 0.03 | 81 | 1005.9 |
| 20260506183402 | 11 | 291 | 8.0 | 14.5 | 0.00 | 0.05 | 0.03 | 82 | 1005.9 |
| 20260506182903 | 11 | 340 | 8.0 | 14.5 | 0.00 | 0.05 | 0.03 | 82 | 1005.8 |
| 20260506182402 | 11 | 297 | 8.0 | 14.5 | 0.00 | 0.05 | 0.03 | 81 | 1005.7 |
| 20260506181910 | 11 | 294 | 6.4 | 14.5 | 0.00 | 0.05 | 0.03 | 81 | 1005.7 |
| 20260506181401 | 11 | 268 | 4.8 | 11.3 | 0.00 | 0.05 | 0.03 | 82 | 1005.6 |
| 20260506180903 | 11 | 271 | 6.4 | 14.5 | 0.00 | 0.05 | 0.03 | 81 | 1005.6 |
| 20260506180402 | 11 | 289 | 4.8 | 14.5 | 0.00 | 0.05 | 0.03 | 81 | 1005.4 |
| 20260506180203 | 11 | 275 | 4.8 | 9.7 | 0.00 | 0.05 | 0.03 | 82 | 1005.5 |
| 20260506175656 | 11 | 284 | 4.8 | 12.9 | 0.00 | 0.05 | 0.03 | 82 | 1005.4 |
| 20260506174903 | 11 | 302 | 6.4 | 16.1 | 0.00 | 0.08 | 0.03 | 81 | 1005.4 |
| 20260506174403 | 11 | 282 | 8.0 | 16.1 | 0.00 | 0.08 | 0.03 | 81 | 1005.4 |
| 20260506173902 | 11 | 255 | 8.0 | 17.7 | 0.00 | 0.08 | 0.03 | 81 | 1005.3 |
| 20260506173402 | 11 | 309 | 9.7 | 17.7 | 0.00 | 0.08 | 0.03 | 80 | 1005.3 |
| 20260506172902 | 11 | 339 | 8.0 | 14.5 | 0.00 | 0.08 | 0.03 | 80 | 1005.2 |
| 20260506172708 | 12 | 309 | 6.4 | 12.9 | 0.00 | 0.08 | 0.03 | 80 | 1005.2 |
| 20260506171901 | 12 | 329 | 9.7 | 20.9 | 0.00 | 0.08 | 0.03 | 80 | 1005.2 |
| 20260506171401 | 12 | 317 | 9.7 | 20.9 | 0.00 | 0.08 | 0.03 | 79 | 1005.1 |
| 20260506171034 | 12 | 299 | 8.0 | 17.7 | 0.00 | 0.08 | 0.03 | 80 | 1005.1 |
| 20260506171001 | 12 | 332 | 8.0 | 17.7 | 0.00 | 0.08 | 0.03 | 80 | 1005.0 |
| 20260506170323 | 12 | 299 | 4.8 | 14.5 | 0.00 | 0.08 | 0.03 | 80 | 1005.0 |
| 20260506165953 | 12 | 290 | 6.4 | 16.1 | 0.00 | 0.08 | 0.03 | 80 | 1004.9 |
| 20260506164901 | 12 | 319 | 4.8 | 14.5 | 0.00 | 0.08 | 0.03 | 80 | 1004.9 |
| 20260506164705 | 12 | 250 | 6.4 | 12.9 | 0.00 | 0.08 | 0.03 | 80 | 1004.9 |
| 20260506163902 | 12 | 238 | 8.0 | 12.9 | 0.00 | 0.08 | 0.03 | 80 | 1004.9 |
| 20260506163400 | 12 | 297 | 8.0 | 19.3 | 0.00 | 0.08 | 0.03 | 80 | 1004.9 |
| 20260506162902 | 12 | 324 | 9.7 | 20.9 | 0.00 | 0.08 | 0.03 | 79 | 1004.8 |
| 20260506162402 | 12 | 348 | 9.7 | 20.9 | 0.00 | 0.08 | 0.03 | 79 | 1004.8 |
| 20260506161902 | 12 | 305 | 6.4 | 14.5 | 0.00 | 0.08 | 0.03 | 80 | 1004.8 |
| 20260506161403 | 12 | 289 | 8.0 | 19.3 | 0.00 | 0.08 | 0.03 | 79 | 1004.8 |
| 20260506161248 | 12 | 258 | 11.3 | 24.1 | 0.00 | 0.08 | 0.03 | 79 | 1004.7 |
| 20260506160751 | 12 | 280 | 11.3 | 24.1 | 0.00 | 0.08 | 0.03 | 79 | 1004.8 |
| 20260506155904 | 12 | 311 | 9.7 | 19.3 | 0.00 | 0.08 | 0.03 | 79 | 1004.7 |
| 20260506155402 | 13 | 296 | 8.0 | 19.3 | 0.00 | 0.08 | 0.03 | 79 | 1004.7 |
| 20260506154902 | 13 | 282 | 9.7 | 17.7 | 0.00 | 0.08 | 0.03 | 79 | 1004.6 |
| 20260506154707 | 13 | 346 | 12.9 | 24.1 | 0.00 | 0.08 | 0.03 | 78 | 1004.7 |
| 20260506153901 | 13 | 278 | 12.9 | 24.1 | 0.00 | 0.08 | 0.03 | 78 | 1004.7 |
| 20260506153403 | 13 | 323 | 11.3 | 20.9 | 0.00 | 0.08 | 0.03 | 79 | 1004.7 |
| 20260506153206 | 13 | 287 | 11.3 | 20.9 | 0.00 | 0.08 | 0.03 | 80 | 1004.7 |
| 20260506152402 | 13 | 274 | 12.9 | 20.9 | 0.00 | 0.08 | 0.03 | 79 | 1004.7 |
| 20260506151901 | 13 | 253 | 12.9 | 20.9 | 0.00 | 0.08 | 0.03 | 80 | 1004.7 |
| 20260506151400 | 12 | 244 | 12.9 | 20.9 | 0.00 | 0.08 | 0.03 | 80 | 1004.7 |
| 20260506150901 | 12 | 262 | 12.9 | 22.5 | 0.00 | 0.08 | 0.03 | 81 | 1004.6 |
| 20260506150401 | 13 | 291 | 11.3 | 22.5 | 0.00 | 0.08 | 0.03 | 81 | 1004.6 |
| 20260506150204 | 13 | 279 | 11.3 | 24.1 | 0.00 | 0.08 | 0.03 | 82 | 1004.6 |
| 20260506145707 | 13 | 262 | 11.3 | 24.1 | 0.00 | 0.08 | 0.03 | 82 | 1004.6 |
| 20260506145021 | 13 | 273 | 12.9 | 20.9 | 0.00 | 0.10 | 0.03 | 80 | 1004.5 |
| 20260506144952 | 13 | 276 | 11.3 | 20.9 | 0.00 | 0.08 | 0.03 | 81 | 1004.5 |
| 20260506143901 | 13 | 290 | 12.9 | 20.9 | 0.00 | 0.10 | 0.03 | 80 | 1004.4 |
| 20260506143404 | 13 | 256 | 11.3 | 20.9 | 0.00 | 0.10 | 0.03 | 82 | 1004.4 |
| 20260506142902 | 13 | 315 | 11.3 | 20.9 | 0.00 | 0.10 | 0.03 | 82 | 1004.4 |
| 20260506142356 | 13 | 265 | 11.3 | 20.9 | 0.00 | 0.10 | 0.03 | 83 | 1004.3 |
| 20260506142155 | 13 | 294 | 9.7 | 19.3 | 0.00 | 0.13 | 0.03 | 82 | 1004.2 |
| 20260506141344 | 13 | 251 | 9.7 | 17.7 | 0.00 | 0.13 | 0.03 | 83 | 1004.3 |
| 20260506140832 | 13 | 311 | 11.3 | 19.3 | 0.00 | 0.13 | 0.03 | 84 | 1004.3 |
| 20260506140331 | 12 | 239 | 9.7 | 19.3 | 0.00 | 0.13 | 0.03 | 84 | 1004.2 |
| 20260506135826 | 12 | 305 | 9.7 | 20.9 | 0.00 | 0.13 | 0.03 | 84 | 1004.2 |
| 20260506135319 | 12 | 276 | 9.7 | 20.9 | 0.00 | 0.13 | 0.03 | 84 | 1004.3 |
| 20260506134809 | 12 | 261 | 9.7 | 24.1 | 0.00 | 0.15 | 0.03 | 85 | 1004.2 |
| 20260506134304 | 12 | 263 | 11.3 | 24.1 | 0.00 | 0.15 | 0.03 | 84 | 1004.3 |
| 20260506133801 | 12 | 246 | 11.3 | 20.9 | 0.00 | 0.15 | 0.03 | 85 | 1004.3 |
| 20260506133301 | 13 | 243 | 11.3 | 25.7 | 0.00 | 0.15 | 0.03 | 84 | 1004.2 |
| 20260506132802 | 13 | 227 | 12.9 | 25.7 | 0.00 | 0.15 | 0.03 | 83 | 1004.2 |
| 20260506132305 | 13 | 294 | 12.9 | 25.7 | 0.00 | 0.15 | 0.03 | 81 | 1004.1 |
| 20260506131804 | 13 | 244 | 16.1 | 25.7 | 0.00 | 0.15 | 0.03 | 80 | 1004.1 |
| 20260506131302 | 13 | 252 | 11.3 | 24.1 | 0.00 | 0.15 | 0.03 | 80 | 1004.1 |
| 20260506131121 | 13 | 208 | 8.0 | 20.9 | 0.00 | 0.15 | 0.03 | 81 | 1004.0 |
| 20260506130301 | 13 | 232 | 8.0 | 16.1 | 0.00 | 0.15 | 0.03 | 83 | 1004.0 |
| 20260506125801 | 13 | 250 | 9.7 | 22.5 | 0.00 | 0.15 | 0.03 | 82 | 1004.0 |
| 20260506125301 | 14 | 252 | 12.9 | 22.5 | 0.00 | 0.15 | 0.03 | 79 | 1004.1 |
| 20260506124802 | 14 | 205 | 12.9 | 30.6 | 0.00 | 0.15 | 0.03 | 78 | 1004.1 |
| 20260506124301 | 15 | 209 | 11.3 | 30.6 | 0.00 | 0.18 | 0.03 | 75 | 1004.0 |
| 20260506123801 | 14 | 230 | 16.1 | 29.0 | 0.00 | 0.18 | 0.03 | 76 | 1004.0 |
| 20260506123304 | 15 | 205 | 12.9 | 29.0 | 0.00 | 0.18 | 0.03 | 75 | 1004.0 |
| 20260506122800 | 15 | 193 | 9.7 | 20.9 | 0.00 | 0.18 | 0.03 | 76 | 1003.9 |
| 20260506122306 | 15 | 172 | 9.7 | 19.3 | 0.00 | 0.20 | 0.03 | 76 | 1004.0 |
| 20260506121803 | 14 | 199 | 11.3 | 25.7 | 0.00 | 0.20 | 0.03 | 78 | 1004.0 |
| 20260506121301 | 13 | 180 | 12.9 | 25.7 | 0.00 | 0.20 | 0.03 | 78 | 1004.0 |
| 20260506120801 | 13 | 185 | 12.9 | 20.9 | 0.00 | 0.23 | 0.03 | 77 | 1004.0 |
| 20260506120302 | 13 | 188 | 11.3 | 20.9 | 0.00 | 0.23 | 0.03 | 77 | 1004.1 |
| 20260506115802 | 14 | 184 | 11.3 | 17.7 | 0.00 | 0.23 | 0.03 | 76 | 1004.1 |
| 20260506115306 | 14 | 184 | 11.3 | 19.3 | 0.00 | 0.23 | 0.03 | 76 | 1004.0 |
| 20260506114802 | 14 | 184 | 11.3 | 19.3 | 0.00 | 0.23 | 0.03 | 75 | 1004.0 |
| 20260506114300 | 14 | 192 | 11.3 | 22.5 | 0.00 | 0.23 | 0.03 | 76 | 1004.0 |
| 20260506113801 | 14 | 194 | 11.3 | 22.5 | 0.00 | 0.23 | 0.03 | 77 | 1004.0 |
| 20260506113301 | 13 | 184 | 9.7 | 20.9 | 0.00 | 0.25 | 0.03 | 79 | 1004.0 |
| 20260506112801 | 14 | 215 | 11.3 | 20.9 | 0.00 | 0.25 | 0.03 | 77 | 1004.0 |
| 20260506112301 | 13 | 212 | 12.9 | 20.9 | 0.00 | 0.25 | 0.03 | 77 | 1004.1 |
| 20260506111801 | 14 | 215 | 14.5 | 25.7 | 0.00 | 0.25 | 0.03 | 76 | 1004.0 |
| 20260506111310 | 15 | 196 | 14.5 | 25.7 | 0.00 | 0.25 | 0.03 | 75 | 1004.0 |
| 20260506110800 | 15 | 216 | 11.3 | 24.1 | 0.00 | 0.25 | 0.03 | 77 | 1004.0 |
| 20260506110620 | 14 | 178 | 9.7 | 19.3 | 0.00 | 0.25 | 0.03 | 77 | 1004.0 |
| 20260506105802 | 14 | 177 | 11.3 | 20.9 | 0.00 | 0.25 | 0.03 | 79 | 1003.9 |
| 20260506105305 | 14 | 217 | 12.9 | 20.9 | 0.00 | 0.25 | 0.03 | 77 | 1004.0 |
| 20260506104801 | 14 | 218 | 14.5 | 24.1 | 0.00 | 0.25 | 0.03 | 78 | 1004.0 |
| 20260506104300 | 14 | 199 | 12.9 | 24.1 | 0.00 | 0.25 | 0.03 | 78 | 1003.9 |
| 20260506103802 | 14 | 213 | 11.3 | 20.9 | 0.00 | 0.25 | 0.03 | 79 | 1003.9 |
| 20260506103302 | 13 | 248 | 8.0 | 17.7 | 0.00 | 0.25 | 0.03 | 80 | 1003.8 |
| 20260506102802 | 13 | 254 | 9.7 | 17.7 | 0.00 | 0.25 | 0.03 | 79 | 1003.9 |
| 20260506102305 | 13 | 208 | 9.7 | 17.7 | 0.00 | 0.25 | 0.03 | 81 | 1004.0 |
| 20260506101801 | 13 | 196 | 11.3 | 22.5 | 0.00 | 0.25 | 0.03 | 83 | 1004.0 |
| 20260506101611 | 12 | 250 | 11.3 | 22.5 | 0.00 | 0.25 | 0.03 | 82 | 1003.9 |
| 20260506100802 | 13 | 198 | 11.3 | 19.3 | 0.00 | 0.25 | 0.03 | 82 | 1003.9 |
| 20260506100302 | 13 | 236 | 12.9 | 20.9 | 0.00 | 0.25 | 0.03 | 82 | 1003.9 |
| 20260506095802 | 13 | 216 | 11.3 | 20.9 | 0.00 | 0.25 | 0.03 | 82 | 1003.9 |
| 20260506095305 | 13 | 213 | 9.7 | 17.7 | 0.00 | 0.25 | 0.03 | 85 | 1003.9 |
| 20260506094801 | 12 | 217 | 9.7 | 16.1 | 0.00 | 0.25 | 0.03 | 86 | 1004.0 |
| 20260506094301 | 12 | 238 | 12.9 | 22.5 | 0.00 | 0.25 | 0.03 | 87 | 1004.0 |
| 20260506093804 | 12 | 190 | 11.3 | 22.5 | 0.00 | 0.25 | 0.03 | 85 | 1004.0 |
| 20260506093302 | 12 | 185 | 9.7 | 19.3 | 0.00 | 0.25 | 0.03 | 86 | 1003.9 |
| 20260506092751 | 12 | 193 | 9.7 | 19.3 | 0.00 | 0.25 | 0.03 | 86 | 1003.9 |
| 20260506092249 | 12 | 232 | 8.0 | 19.3 | 0.00 | 0.25 | 0.03 | 86 | 1004.0 |
| 20260506092051 | 12 | 206 | 6.4 | 16.1 | 0.00 | 0.25 | 0.03 | 87 | 1003.9 |
| 20260506091232 | 12 | 200 | 8.0 | 16.1 | 0.00 | 0.25 | 0.03 | 86 | 1003.9 |
| 20260506090731 | 12 | 196 | 9.7 | 20.9 | 0.00 | 0.25 | 0.03 | 86 | 1003.9 |
| 20260506090222 | 12 | 183 | 9.7 | 20.9 | 0.00 | 0.25 | 0.03 | 86 | 1003.9 |
| 20260506085718 | 11 | 209 | 9.7 | 19.3 | 0.00 | 0.25 | 0.03 | 87 | 1003.9 |
| 20260506085214 | 11 | 229 | 9.7 | 19.3 | 0.00 | 0.25 | 0.03 | 86 | 1003.9 |
| 20260506084704 | 11 | 213 | 9.7 | 19.3 | 0.00 | 0.25 | 0.03 | 86 | 1003.8 |
| 20260506084503 | 11 | 183 | 9.7 | 19.3 | 0.00 | 0.25 | 0.03 | 87 | 1003.7 |
| 20260506083701 | 11 | 205 | 9.7 | 16.1 | 0.00 | 0.25 | 0.03 | 87 | 1003.7 |
| 20260506083512 | 11 | 259 | 11.3 | 19.3 | 0.00 | 0.25 | 0.03 | 86 | 1003.7 |
| 20260506082701 | 11 | 219 | 11.3 | 20.9 | 0.00 | 0.25 | 0.03 | 86 | 1003.7 |
| 20260506082202 | 11 | 181 | 9.7 | 20.9 | 0.00 | 0.25 | 0.03 | 86 | 1003.7 |
| 20260506081701 | 11 | 195 | 9.7 | 20.9 | 0.00 | 0.25 | 0.03 | 86 | 1003.6 |
| 20260506081200 | 11 | 223 | 12.9 | 20.9 | 0.00 | 0.25 | 0.03 | 85 | 1003.6 |
| 20260506080701 | 11 | 194 | 11.3 | 20.9 | 0.00 | 0.25 | 0.03 | 85 | 1003.6 |
| 20260506080512 | 11 | 190 | 11.3 | 20.9 | 0.00 | 0.25 | 0.03 | 86 | 1003.5 |
| 20260506073201 | 11 | 207 | 9.7 | 17.7 | 0.00 | 0.25 | 0.03 | 86 | 1003.6 |
| 20260506072701 | 11 | 230 | 9.7 | 19.3 | 0.00 | 0.25 | 0.03 | 87 | 1003.5 |
| 20260506072204 | 11 | 180 | 8.0 | 19.3 | 0.00 | 0.25 | 0.03 | 87 | 1003.6 |
| 20260506071701 | 11 | 197 | 9.7 | 17.7 | 0.00 | 0.25 | 0.03 | 87 | 1003.6 |
| 20260506071510 | 11 | 171 | 9.7 | 17.7 | 0.00 | 0.25 | 0.03 | 87 | 1003.6 |
| 20260506071017 | 11 | 184 | 11.3 | 19.3 | 0.00 | 0.25 | 0.03 | 87 | 1003.6 |
| 20260506070202 | 11 | 230 | 11.3 | 20.9 | 0.00 | 0.25 | 0.03 | 87 | 1003.6 |
| 20260506062201 | 11 | 182 | 9.7 | 19.3 | 0.00 | 0.25 | 0.03 | 87 | 1003.7 |
| 20260506061700 | 11 | 187 | 9.7 | 20.9 | 0.00 | 0.25 | 0.03 | 88 | 1003.6 |
| 20260506061202 | 11 | 184 | 11.3 | 20.9 | 0.00 | 0.25 | 0.03 | 88 | 1003.7 |
| 20260506060702 | 11 | 196 | 8.0 | 16.1 | 0.00 | 0.25 | 0.03 | 88 | 1003.6 |
| 20260506060204 | 11 | 186 | 8.0 | 16.1 | 0.00 | 0.25 | 0.03 | 88 | 1003.6 |
| 20260506051201 | 10 | 207 | 9.7 | 22.5 | 0.00 | 0.25 | 0.03 | 90 | 1003.3 |
| 20260506050702 | 10 | 216 | 9.7 | 16.1 | 0.00 | 0.25 | 0.03 | 90 | 1003.3 |
| 20260506050201 | 10 | 186 | 8.0 | 16.1 | 0.00 | 0.25 | 0.03 | 90 | 1003.3 |
| 20260506044701 | 10 | 188 | 9.7 | 19.3 | 0.00 | 0.25 | 0.03 | 91 | 1003.5 |
| 20260506044201 | 10 | 209 | 11.3 | 19.3 | 0.00 | 0.25 | 0.03 | 91 | 1003.5 |
| 20260506043703 | 10 | 194 | 9.7 | 17.7 | 0.00 | 0.25 | 0.03 | 91 | 1003.5 |
| 20260506043201 | 10 | 206 | 8.0 | 14.5 | 0.00 | 0.25 | 0.03 | 91 | 1003.5 |
| 20260506042702 | 10 | 186 | 8.0 | 14.5 | 0.00 | 0.25 | 0.03 | 91 | 1003.6 |
| 20260506042507 | 10 | 203 | 9.7 | 16.1 | 0.00 | 0.25 | 0.03 | 91 | 1003.6 |
| 20260506041700 | 10 | 219 | 11.3 | 16.1 | 0.00 | 0.25 | 0.03 | 91 | 1003.6 |
| 20260506041201 | 11 | 196 | 9.7 | 14.5 | 0.00 | 0.25 | 0.03 | 91 | 1003.7 |
| 20260506040702 | 11 | 180 | 8.0 | 14.5 | 0.00 | 0.25 | 0.03 | 91 | 1003.6 |
| 20260506040201 | 10 | 184 | 8.0 | 17.7 | 0.00 | 0.25 | 0.03 | 91 | 1003.6 |
| 20260506035701 | 11 | 194 | 9.7 | 19.3 | 0.00 | 0.25 | 0.03 | 91 | 1003.6 |
| 20260506035202 | 10 | 165 | 8.0 | 19.3 | 0.00 | 0.25 | 0.03 | 91 | 1003.8 |
| 20260506034701 | 10 | 182 | 8.0 | 16.1 | 0.00 | 0.25 | 0.03 | 91 | 1003.8 |
| 20260506034203 | 11 | 190 | 8.0 | 16.1 | 0.00 | 0.25 | 0.03 | 91 | 1003.9 |
| 20260506033701 | 11 | 188 | 8.0 | 16.1 | 0.00 | 0.25 | 0.03 | 91 | 1003.9 |
| 20260506033200 | 11 | 211 | 9.7 | 16.1 | 0.00 | 0.25 | 0.03 | 91 | 1003.8 |
| 20260506032701 | 11 | 186 | 9.7 | 17.7 | 0.00 | 0.25 | 0.03 | 91 | 1003.8 |
| 20260506032202 | 11 | 209 | 9.7 | 17.7 | 0.00 | 0.25 | 0.03 | 91 | 1003.8 |
| 20260506031702 | 11 | 195 | 9.7 | 16.1 | 0.00 | 0.25 | 0.03 | 91 | 1003.7 |
| 20260506031201 | 11 | 183 | 9.7 | 17.7 | 0.00 | 0.25 | 0.03 | 91 | 1003.8 |
| 20260506030702 | 11 | 175 | 9.7 | 17.7 | 0.00 | 0.25 | 0.03 | 91 | 1003.9 |
| 20260506030201 | 11 | 210 | 8.0 | 14.5 | 0.00 | 0.25 | 0.03 | 91 | 1003.9 |
| 20260506025701 | 11 | 169 | 8.0 | 14.5 | 0.00 | 0.25 | 0.03 | 91 | 1003.9 |
| 20260506025201 | 11 | 205 | 8.0 | 16.1 | 0.00 | 0.25 | 0.03 | 91 | 1004.0 |
| 20260506024701 | 11 | 213 | 9.7 | 17.7 | 0.00 | 0.25 | 0.03 | 91 | 1004.0 |
| 20260506024201 | 11 | 191 | 11.3 | 17.7 | 0.00 | 0.25 | 0.03 | 91 | 1004.0 |
| 20260506023701 | 11 | 202 | 9.7 | 16.1 | 0.00 | 0.25 | 0.03 | 91 | 1003.9 |
| 20260506023203 | 11 | 219 | 9.7 | 17.7 | 0.00 | 0.25 | 0.03 | 91 | 1003.9 |
| 20260506022701 | 11 | 202 | 11.3 | 17.7 | 0.00 | 0.25 | 0.03 | 91 | 1003.9 |
| 20260506022200 | 11 | 190 | 11.3 | 19.3 | 0.00 | 0.25 | 0.03 | 91 | 1004.0 |
| 20260506021702 | 11 | 217 | 12.9 | 19.3 | 0.00 | 0.25 | 0.03 | 91 | 1003.8 |
| 20260506021515 | 11 | 192 | 11.3 | 17.7 | 0.00 | 0.25 | 0.03 | 91 | 1003.9 |
| 20260506021008 | 11 | 171 | 11.3 | 17.7 | 0.00 | 0.25 | 0.03 | 91 | 1003.8 |
| 20260506020202 | 11 | 207 | 11.3 | 20.9 | 0.00 | 0.25 | 0.03 | 91 | 1003.8 |
| 20260506015702 | 11 | 195 | 11.3 | 20.9 | 0.00 | 0.25 | 0.03 | 91 | 1003.9 |
| 20260506015203 | 11 | 193 | 9.7 | 19.3 | 0.00 | 0.25 | 0.03 | 92 | 1004.0 |
| 20260506014702 | 11 | 193 | 11.3 | 19.3 | 0.00 | 0.25 | 0.03 | 91 | 1003.9 |
| 20260506014510 | 11 | 187 | 11.3 | 19.3 | 0.00 | 0.25 | 0.03 | 91 | 1004.0 |